Time,TemperatureF,DewpointF,PressureIn,WindDirection,WindDirectionDegrees,WindSpeedMPH,WindSpeedGustMPH,Humidity,HourlyPrecipIn,Conditions,Clouds,dailyrainin,SolarRadiationWatts/m^2,SoftwareType,DateUTC
2013-01-07 00:02:00,56.0,55.0,-100.00,ESE,102,4.0,18.0,97,0.00,,,0.00,0.000000,,2013-01-07 10:02:00,
2013-01-07 00:12:00,56.0,55.0,-100.00,ESE,102,4.0,18.0,97,0.00,,,0.00,0.000000,,2013-01-07 10:12:00,
2013-01-07 00:22:00,57.0,56.0,-100.00,NE,34,4.0,18.0,98,0.00,,,0.00,0.000000,,2013-01-07 10:22:00,
2013-01-07 00:43:00,57.0,56.0,-100.00,NE,34,4.0,18.0,98,0.00,,,0.00,0.000000,,2013-01-07 10:43:00,
2013-01-07 00:52:00,57.0,56.0,-100.00,NE,34,4.0,18.0,98,0.00,,,0.00,0.000000,,2013-01-07 10:52:00,
2013-01-07 01:02:00,57.0,56.0,-100.00,NE,34,4.0,18.0,98,0.00,,,0.00,0.000000,,2013-01-07 11:02:00,
2013-01-07 01:12:00,57.0,56.0,-100.00,NE,34,4.0,18.0,98,0.00,,,0.00,0.000000,,2013-01-07 11:12:00,
2013-01-07 01:22:00,56.0,55.0,-100.00,NW,305,4.0,14.0,97,0.00,,,0.00,0.000000,,2013-01-07 11:22:00,
2013-01-07 01:43:00,56.0,55.0,-100.00,NW,305,4.0,14.0,97,0.00,,,0.00,0.000000,,2013-01-07 11:43:00,
2013-01-07 01:53:00,56.0,55.0,-100.00,NW,305,4.0,14.0,97,0.00,,,0.00,0.000000,,2013-01-07 11:53:00,
2013-01-07 02:02:00,56.0,55.0,-100.00,NW,305,4.0,14.0,97,0.00,,,0.00,0.000000,,2013-01-07 12:02:00,
2013-01-07 02:12:00,56.0,55.0,-100.00,NW,305,4.0,14.0,97,0.00,,,0.00,0.000000,,2013-01-07 12:12:00,
2013-01-07 02:22:00,56.0,56.0,-100.00,NNE,15,4.0,20.0,99,0.00,,,0.00,0.000000,,2013-01-07 12:22:00,
2013-01-07 02:43:00,56.0,56.0,-100.00,NNE,15,4.0,20.0,99,0.00,,,0.00,0.000000,,2013-01-07 12:43:00,
2013-01-07 02:53:00,56.0,56.0,-100.00,NNE,15,4.0,20.0,99,0.00,,,0.00,0.000000,,2013-01-07 12:53:00,
2013-01-07 03:02:00,56.0,56.0,-100.00,NNE,15,4.0,20.0,99,0.00,,,0.00,0.000000,,2013-01-07 13:02:00,
2013-01-07 03:12:00,56.0,56.0,-100.00,NNE,15,4.0,20.0,99,0.00,,,0.00,0.000000,,2013-01-07 13:12:00,
2013-01-07 03:22:00,56.0,55.0,-100.00,NNW,339,3.0,13.0,98,0.00,,,0.00,0.000000,,2013-01-07 13:22:00,
2013-01-07 03:43:00,56.0,55.0,-100.00,NNW,339,3.0,13.0,98,0.00,,,0.00,0.000000,,2013-01-07 13:43:00,
2013-01-07 03:53:00,56.0,55.0,-100.00,NNW,339,3.0,13.0,98,0.00,,,0.00,0.000000,,2013-01-07 13:53:00,
2013-01-07 04:03:00,56.0,55.0,-100.00,NNW,339,3.0,13.0,98,0.00,,,0.00,0.000000,,2013-01-07 14:03:00,
2013-01-07 04:12:00,56.0,55.0,-100.00,NNW,339,3.0,13.0,98,0.00,,,0.00,0.000000,,2013-01-07 14:12:00,
2013-01-07 04:22:00,56.0,55.0,-100.00,ESE,114,4.0,20.0,98,0.00,,,0.00,0.000000,,2013-01-07 14:22:00,
2013-01-07 04:43:00,56.0,55.0,-100.00,ESE,114,4.0,20.0,98,0.00,,,0.00,0.000000,,2013-01-07 14:43:00,
2013-01-07 04:53:00,56.0,55.0,-100.00,ESE,114,4.0,20.0,98,0.00,,,0.00,0.000000,,2013-01-07 14:53:00,
2013-01-07 05:03:00,56.0,55.0,-100.00,ESE,114,4.0,20.0,98,0.00,,,0.00,0.000000,,2013-01-07 15:03:00,
2013-01-07 05:12:00,56.0,55.0,-100.00,ESE,114,4.0,20.0,98,0.00,,,0.00,0.000000,,2013-01-07 15:12:00,
2013-01-07 05:22:00,56.0,56.0,-100.00,SE,137,3.0,15.0,99,0.00,,,0.00,0.000000,,2013-01-07 15:22:00,
2013-01-07 05:43:00,56.0,56.0,-100.00,SE,137,3.0,15.0,99,0.00,,,0.00,0.000000,,2013-01-07 15:43:00,
2013-01-07 05:53:00,56.0,56.0,-100.00,SE,137,3.0,15.0,99,0.00,,,0.00,0.000000,,2013-01-07 15:53:00,
2013-01-07 06:02:00,56.0,56.0,-100.00,SE,137,3.0,15.0,99,0.00,,,0.00,0.000000,,2013-01-07 16:02:00,
2013-01-07 06:12:00,56.0,56.0,-100.00,SE,137,3.0,15.0,99,0.00,,,0.00,0.000000,,2013-01-07 16:12:00,
2013-01-07 06:22:00,56.0,55.0,-100.00,NW,310,3.0,15.0,98,0.00,,,0.00,0.000000,,2013-01-07 16:22:00,
2013-01-07 06:43:00,56.0,55.0,-100.00,NW,310,3.0,15.0,98,0.00,,,0.00,0.000000,,2013-01-07 16:43:00,
2013-01-07 06:53:00,56.0,55.0,-100.00,NW,310,3.0,15.0,98,0.00,,,0.00,0.000000,,2013-01-07 16:53:00,
2013-01-07 07:02:00,56.0,55.0,-100.00,NW,310,3.0,15.0,98,0.00,,,0.00,0.000000,,2013-01-07 17:02:00,
2013-01-07 07:12:00,56.0,55.0,-100.00,NW,310,3.0,15.0,98,0.00,,,0.00,0.000000,,2013-01-07 17:12:00,
2013-01-07 07:22:00,56.0,55.0,-100.00,East,93,3.0,19.0,98,0.00,,,0.00,0.000000,,2013-01-07 17:22:00,
2013-01-07 07:43:00,56.0,55.0,-100.00,East,93,3.0,19.0,98,0.00,,,0.00,0.000000,,2013-01-07 17:43:00,
2013-01-07 07:53:00,56.0,55.0,-100.00,East,93,3.0,19.0,98,0.00,,,0.00,0.000000,,2013-01-07 17:53:00,
2013-01-07 08:02:00,56.0,55.0,-100.00,East,93,3.0,19.0,98,0.00,,,0.00,0.000000,,2013-01-07 18:02:00,
2013-01-07 08:12:00,56.0,55.0,-100.00,East,93,3.0,19.0,98,0.00,,,0.00,0.000000,,2013-01-07 18:12:00,
2013-01-07 08:22:00,56.0,56.0,-100.00,NNW,336,3.0,11.0,99,0.00,,,0.00,9.000000,,2013-01-07 18:22:00,
2013-01-07 08:43:00,56.0,56.0,-100.00,NNW,336,3.0,11.0,99,0.00,,,0.00,9.000000,,2013-01-07 18:43:00,
2013-01-07 08:53:00,56.0,56.0,-100.00,NNW,336,3.0,11.0,99,0.00,,,0.00,9.000000,,2013-01-07 18:53:00,
2013-01-07 09:03:00,56.0,56.0,-100.00,NNW,336,3.0,11.0,99,0.00,,,0.00,9.000000,,2013-01-07 19:03:00,
2013-01-07 09:12:00,56.0,56.0,-100.00,NNW,336,3.0,11.0,99,0.00,,,0.00,9.000000,,2013-01-07 19:12:00,
2013-01-07 09:22:00,57.0,56.0,-100.00,WNW,292,2.0,11.0,98,0.00,,,0.00,63.000000,,2013-01-07 19:22:00,
2013-01-07 09:43:00,57.0,56.0,-100.00,WNW,292,2.0,11.0,98,0.00,,,0.00,63.000000,,2013-01-07 19:43:00,
2013-01-07 09:53:00,57.0,56.0,-100.00,WNW,292,2.0,11.0,98,0.00,,,0.00,63.000000,,2013-01-07 19:53:00,
2013-01-07 10:02:00,57.0,56.0,-100.00,WNW,292,2.0,11.0,98,0.00,,,0.00,63.000000,,2013-01-07 20:02:00,
2013-01-07 10:12:00,57.0,56.0,-100.00,WNW,292,2.0,11.0,98,0.00,,,0.00,63.000000,,2013-01-07 20:12:00,
2013-01-07 10:22:00,57.0,56.0,-100.00,NW,319,3.0,13.0,98,0.00,,,0.00,114.000000,,2013-01-07 20:22:00,
2013-01-07 10:43:00,57.0,56.0,-100.00,NW,319,3.0,13.0,98,0.00,,,0.00,114.000000,,2013-01-07 20:43:00,
2013-01-07 10:53:00,57.0,56.0,-100.00,NW,319,3.0,13.0,98,0.00,,,0.00,114.000000,,2013-01-07 20:53:00,
2013-01-07 11:02:00,57.0,56.0,-100.00,NW,319,3.0,13.0,98,0.00,,,0.00,114.000000,,2013-01-07 21:02:00,
2013-01-07 11:12:00,57.0,56.0,-100.00,NW,319,3.0,13.0,98,0.00,,,0.00,114.000000,,2013-01-07 21:12:00,
2013-01-07 11:22:00,57.0,56.0,-100.00,SE,129,3.0,14.0,97,0.00,,,0.00,149.000000,,2013-01-07 21:22:00,
2013-01-07 11:43:00,57.0,56.0,-100.00,SE,129,3.0,14.0,97,0.00,,,0.00,149.000000,,2013-01-07 21:43:00,
2013-01-07 11:53:00,57.0,56.0,-100.00,SE,129,3.0,14.0,97,0.00,,,0.00,149.000000,,2013-01-07 21:53:00,
2013-01-07 12:02:00,57.0,56.0,-100.00,SE,129,3.0,14.0,97,0.00,,,0.00,149.000000,,2013-01-07 22:02:00,
2013-01-07 12:12:00,57.0,56.0,-100.00,SE,129,3.0,14.0,97,0.00,,,0.00,149.000000,,2013-01-07 22:12:00,
2013-01-07 12:22:00,57.0,56.0,-100.00,ESE,121,3.0,13.0,98,0.00,,,0.00,246.000000,,2013-01-07 22:22:00,
2013-01-07 12:43:00,57.0,56.0,-100.00,ESE,121,3.0,13.0,98,0.00,,,0.00,246.000000,,2013-01-07 22:43:00,
2013-01-07 12:53:00,57.0,56.0,-100.00,ESE,121,3.0,13.0,98,0.00,,,0.00,246.000000,,2013-01-07 22:53:00,
2013-01-07 13:02:00,57.0,56.0,-100.00,ESE,121,3.0,13.0,98,0.00,,,0.00,246.000000,,2013-01-07 23:02:00,
2013-01-07 13:12:00,57.0,56.0,-100.00,ESE,121,3.0,13.0,98,0.00,,,0.00,246.000000,,2013-01-07 23:12:00,
2013-01-07 13:22:00,57.0,55.0,-100.00,ESE,121,4.0,14.0,94,0.00,,,0.00,321.000000,,2013-01-07 23:22:00,
2013-01-07 13:43:00,57.0,55.0,-100.00,ESE,121,4.0,14.0,94,0.00,,,0.00,321.000000,,2013-01-07 23:43:00,
2013-01-07 13:53:00,57.0,55.0,-100.00,ESE,121,4.0,14.0,94,0.00,,,0.00,321.000000,,2013-01-07 23:53:00,
2013-01-07 14:02:00,57.0,55.0,-100.00,ESE,121,4.0,14.0,94,0.00,,,0.00,321.000000,,2013-01-08 00:02:00,
2013-01-07 14:12:00,57.0,55.0,-100.00,ESE,121,4.0,14.0,94,0.00,,,0.00,321.000000,,2013-01-08 00:12:00,
2013-01-07 14:22:00,58.0,55.0,-100.00,SE,131,4.0,17.0,91,0.00,,,0.00,587.000000,,2013-01-08 00:22:00,
2013-01-07 14:43:00,58.0,55.0,-100.00,SE,131,4.0,17.0,91,0.00,,,0.00,587.000000,,2013-01-08 00:43:00,
2013-01-07 14:52:00,58.0,55.0,-100.00,SE,131,4.0,17.0,91,0.00,,,0.00,587.000000,,2013-01-08 00:52:00,
2013-01-07 15:02:00,58.0,55.0,-100.00,SE,131,4.0,17.0,91,0.00,,,0.00,587.000000,,2013-01-08 01:02:00,
2013-01-07 15:12:00,58.0,55.0,-100.00,SE,131,4.0,17.0,91,0.00,,,0.00,587.000000,,2013-01-08 01:12:00,
2013-01-07 15:22:00,59.0,55.0,-100.00,SE,131,4.0,19.0,86,0.00,,,0.00,586.000000,,2013-01-08 01:22:00,
2013-01-07 15:42:00,59.0,55.0,-100.00,SE,131,4.0,19.0,86,0.00,,,0.00,586.000000,,2013-01-08 01:42:00,
2013-01-07 15:52:00,59.0,55.0,-100.00,SE,131,4.0,19.0,86,0.00,,,0.00,586.000000,,2013-01-08 01:52:00,
2013-01-07 16:02:00,59.0,55.0,-100.00,SE,131,4.0,19.0,86,0.00,,,0.00,586.000000,,2013-01-08 02:02:00,
2013-01-07 16:12:00,59.0,55.0,-100.00,SE,131,4.0,19.0,86,0.00,,,0.00,586.000000,,2013-01-08 02:12:00,
2013-01-07 16:22:00,59.0,53.0,-100.00,SE,134,4.0,16.0,81,0.00,,,0.00,471.000000,,2013-01-08 02:22:00,
2013-01-07 16:43:00,59.0,53.0,-100.00,SE,134,4.0,16.0,81,0.00,,,0.00,471.000000,,2013-01-08 02:43:00,
2013-01-07 16:53:00,59.0,53.0,-100.00,SE,134,4.0,16.0,81,0.00,,,0.00,471.000000,,2013-01-08 02:53:00,
2013-01-07 17:03:00,59.0,53.0,-100.00,SE,134,4.0,16.0,81,0.00,,,0.00,471.000000,,2013-01-08 03:03:00,
2013-01-07 17:12:00,59.0,53.0,-100.00,SE,134,4.0,16.0,81,0.00,,,0.00,471.000000,,2013-01-08 03:12:00,
2013-01-07 17:22:00,57.0,52.0,-100.00,SE,133,3.0,14.0,83,0.00,,,0.00,89.000000,,2013-01-08 03:22:00,
2013-01-07 17:43:00,57.0,52.0,-100.00,SE,133,3.0,14.0,83,0.00,,,0.00,89.000000,,2013-01-08 03:43:00,
2013-01-07 17:53:00,57.0,52.0,-100.00,SE,133,3.0,14.0,83,0.00,,,0.00,89.000000,,2013-01-08 03:53:00,
2013-01-07 18:02:00,57.0,52.0,-100.00,SE,133,3.0,14.0,83,0.00,,,0.00,89.000000,,2013-01-08 04:02:00,
2013-01-07 18:12:00,57.0,52.0,-100.00,SE,133,3.0,14.0,83,0.00,,,0.00,89.000000,,2013-01-08 04:12:00,
2013-01-07 18:22:00,55.0,52.0,-100.00,NW,319,3.0,12.0,89,0.00,,,0.00,34.000000,,2013-01-08 04:22:00,
2013-01-07 18:43:00,55.0,52.0,-100.00,NW,319,3.0,12.0,89,0.00,,,0.00,34.000000,,2013-01-08 04:43:00,
2013-01-07 18:52:00,55.0,52.0,-100.00,NW,319,3.0,12.0,89,0.00,,,0.00,34.000000,,2013-01-08 04:52:00,
2013-01-07 19:03:00,55.0,52.0,-100.00,NW,319,3.0,12.0,89,0.00,,,0.00,34.000000,,2013-01-08 05:03:00,
2013-01-07 19:12:00,55.0,52.0,-100.00,NW,319,3.0,12.0,89,0.00,,,0.00,34.000000,,2013-01-08 05:12:00,
2013-01-07 19:22:00,55.0,52.0,-100.00,ESE,108,3.0,12.0,89,0.00,,,0.00,1.000000,,2013-01-08 05:22:00,
2013-01-07 19:43:00,55.0,52.0,-100.00,ESE,108,3.0,12.0,89,0.00,,,0.00,1.000000,,2013-01-08 05:43:00,
2013-01-07 19:53:00,55.0,52.0,-100.00,ESE,108,3.0,12.0,89,0.00,,,0.00,1.000000,,2013-01-08 05:53:00,
2013-01-07 20:02:00,55.0,52.0,-100.00,ESE,108,3.0,12.0,89,0.00,,,0.00,1.000000,,2013-01-08 06:02:00,
2013-01-07 20:12:00,55.0,52.0,-100.00,ESE,108,3.0,12.0,89,0.00,,,0.00,1.000000,,2013-01-08 06:12:00,
2013-01-07 20:22:00,55.0,53.0,-100.00,SE,132,3.0,15.0,93,0.00,,,0.00,0.000000,,2013-01-08 06:22:00,
2013-01-07 20:43:00,55.0,53.0,-100.00,SE,132,3.0,15.0,93,0.00,,,0.00,0.000000,,2013-01-08 06:43:00,
2013-01-07 20:53:00,55.0,53.0,-100.00,SE,132,3.0,15.0,93,0.00,,,0.00,0.000000,,2013-01-08 06:53:00,
2013-01-07 21:02:00,55.0,53.0,-100.00,SE,132,3.0,15.0,93,0.00,,,0.00,0.000000,,2013-01-08 07:02:00,
2013-01-07 21:11:00,55.0,53.0,-100.00,SE,132,3.0,15.0,93,0.00,,,0.00,0.000000,,2013-01-08 07:11:00,
2013-01-07 21:22:00,55.0,53.0,-100.00,ESE,115,3.0,14.0,94,0.00,,,0.00,0.000000,,2013-01-08 07:22:00,
2013-01-07 21:42:00,55.0,53.0,-100.00,ESE,115,3.0,14.0,94,0.00,,,0.00,0.000000,,2013-01-08 07:42:00,
2013-01-07 21:52:00,55.0,53.0,-100.00,ESE,115,3.0,14.0,94,0.00,,,0.00,0.000000,,2013-01-08 07:52:00,
2013-01-07 22:02:00,55.0,53.0,-100.00,ESE,115,3.0,14.0,94,0.00,,,0.00,0.000000,,2013-01-08 08:02:00,
2013-01-07 22:11:00,55.0,53.0,-100.00,ESE,115,3.0,14.0,94,0.00,,,0.00,0.000000,,2013-01-08 08:11:00,
2013-01-07 22:22:00,55.0,54.0,-100.00,ENE,71,3.0,13.0,95,0.00,,,0.00,0.000000,,2013-01-08 08:22:00,
2013-01-07 22:42:00,55.0,54.0,-100.00,ENE,71,3.0,13.0,95,0.00,,,0.00,0.000000,,2013-01-08 08:42:00,
2013-01-07 22:53:00,55.0,54.0,-100.00,ENE,71,3.0,13.0,95,0.00,,,0.00,0.000000,,2013-01-08 08:53:00,
2013-01-07 23:02:00,55.0,54.0,-100.00,ENE,71,3.0,13.0,95,0.00,,,0.00,0.000000,,2013-01-08 09:02:00,
2013-01-07 23:12:00,55.0,54.0,-100.00,ENE,71,3.0,13.0,95,0.00,,,0.00,0.000000,,2013-01-08 09:12:00,
2013-01-07 23:22:00,55.0,54.0,-100.00,East,87,3.0,12.0,96,0.00,,,0.00,0.000000,,2013-01-08 09:22:00,
2013-01-07 23:42:00,55.0,54.0,-100.00,East,87,3.0,12.0,96,0.00,,,0.00,0.000000,,2013-01-08 09:42:00,
2013-01-07 23:52:00,55.0,54.0,-100.00,East,87,3.0,12.0,96,0.00,,,0.00,0.000000,,2013-01-08 09:52:00,